[[{"header":{"parameterUnit":"m.s-1","parameterCategory":1,"la1":30.2991,"la2":30.254,"lo1":-89.0895,"lo2":-89.0444,"dy":0.0017,"dx":0.0017,"nx":28,"ny":28,"refTime":"2024-07-31T03:00:00:Z","depth":0,"parameterNumber":2,"parameterNumberName":"U-component_of_WINDS"},"data":[0,0,0,0,0,0,0,0,0,0,0,0,0,0,0,0,0,0,0,0,0,0,0,0,0,0,0,0,0,0,0,0,0,0,0,0,0,0,0,0,0,0,0,0,0,0,0,0,0,0,0,0,0,0,0,0,0,0,0.3421,0.3422,0,0.3525,0.3526,0.3527,0.3555,0.3555,0.3554,0.3554,0.3662,0.3665,0.3668,0,0,0,0,0,0,0,0,0,0,0,0,0,0.3246,0.3249,0.3421,0.3422,0.3423,0.3525,0.3526,0.3528,0.3556,0.3555,0.3554,0.3553,0.366,0.3665,0.3669,0,0,0,0,0,0,0,0,0,0,0,0,0,0.3333,0.325,0.342,0.3449,0.3453,0.3524,0.3526,0.3528,0.3556,0.3555,0.3554,0.3553,0.3659,0.3664,0.3669,0.372,0,0,0.3685,0.3687,0,0,0,0,0,0,0,0,0.3328,0.334,0.3444,0.3447,0.3452,0.3526,0.3504,0.3592,0.3556,0.3517,0.3554,0.3553,0.3617,0.3626,0.3648,0.3725,0.3729,0.3686,0.3689,0.3691,0.3692,0,0,0,0,0,0,0,0.3322,0.3335,0.3462,0.3445,0.345,0.3457,0.3469,0.3521,0.3571,0.352,0.3522,0.3534,0.3619,0.3642,0.365,0.3731,0.3685,0.369,0.3693,0.3695,0.3854,0.3856,0,0,0,0,0,0,0.3311,0.333,0.3459,0.3465,0.3386,0.3461,0.3474,0.3503,0.3571,0.358,0.3535,0.3535,0.3634,0.3644,0.3654,0.3718,0.3691,0.3696,0.3699,0.3853,0.3855,0.3856,0,0,0,0,0,0,0.3307,0.3322,0.3454,0.3398,0.3416,0.3465,0.3498,0.3506,0.3529,0.3582,0.3591,0.3549,0.3634,0.3647,0.3703,0.3722,0.3698,0.3703,0.3852,0.3854,0.3855,0.3844,0,0,0,0,0,0,0.3302,0.3321,0.334,0.3398,0.3418,0.3501,0.3499,0.3508,0.3538,0.3539,0.3598,0.3607,0.3634,0.3695,0.3708,0.3728,0.3707,0.3851,0.3853,0.3855,0.3843,0.3845,0.3847,0,0,0,0,0,0.3296,0.3333,0.3341,0.3356,0.3444,0.3502,0.3514,0.3544,0.3539,0.3559,0.3593,0.3605,0.3717,0.3701,0.3716,0.3738,0.385,0.3852,0.3855,0.3842,0.3845,0.3847,0,0,0,0,0,0,0.3276,0.3341,0.3351,0.3408,0.3449,0.3507,0.3533,0.3546,0.359,0.3589,0.3626,0.3639,0.3692,0.3721,0.3701,0.379,0.3784,0.3789,0.3769,0.3772,0.3774,0.3766,0.3711,0,0,0,0,0,0.3279,0.332,0.3375,0.3421,0.3441,0.3483,0.351,0.353,0.3574,0.3592,0.363,0.3672,0.3718,0.3746,0.3791,0.3847,0.3861,0.387,0.3872,0.3873,0.3878,0.391,0.3914,0.3864,0.3864,0.3864,0,0,0.3284,0.3325,0.3349,0.3418,0.3452,0.3494,0.3498,0.3543,0.3575,0.3599,0.3654,0.3683,0.3733,0.379,0.3816,0.3815,0.3894,0.3877,0.3877,0.3881,0.3913,0.3917,0.3922,0.3866,0.3866,0.3865,0,0,0.3315,0.335,0.3392,0.3426,0.3478,0.3506,0.3516,0.3571,0.3592,0.3647,0.3666,0.3705,0.3782,0.3817,0.3844,0.3888,0.3901,0.3902,0.3913,0.3943,0.3947,0.3951,0.3966,0.3972,0.3906,0.3906,0.3906,0,0.3316,0.338,0.3412,0.3456,0.3485,0.3509,0.3551,0.3583,0.3646,0.3666,0.3663,0.376,0.3796,0.386,0.3871,0.3893,0.3905,0.3896,0.3944,0.3948,0.3952,0.3967,0.3973,0.3906,0.3906,0.3906,0.3906,0,0.3378,0.3422,0.345,0.351,0.3543,0.3586,0.3624,0.3653,0.367,0.3698,0.3755,0.3798,0.3852,0.3868,0.3886,0.3936,0.3933,0.3937,0.3931,0.3956,0.3971,0.3977,0.3906,0.3906,0.3906,0.3906,0,0,0.34,0.3477,0.3487,0.3514,0.3573,0.3608,0.3652,0.3704,0.3728,0.3771,0.3809,0.3873,0.3877,0.3908,0.393,0.3956,0.3988,0.3957,0.3959,0.3961,0.4046,0.4043,0.4049,0.3997,0.3998,0.3999,0.4042,0,0.3439,0.3518,0.3548,0.3612,0.3654,0.3676,0.3715,0.3755,0.3782,0.3821,0.3852,0.3897,0.3898,0.3917,0.3945,0.3978,0.4006,0.3976,0.4032,0.4034,0.4019,0.4057,0.4054,0.4092,0.4048,0.4049,0.4049,0,0.3495,0.3538,0.3607,0.366,0.3678,0.3712,0.3762,0.3799,0.3845,0.3863,0.3898,0.3917,0.3964,0.3956,0.4021,0.4,0.4025,0.4045,0.4047,0.4054,0.4043,0.4064,0.4105,0.411,0.4059,0.4058,0.4058,0,0.3504,0.3579,0.363,0.3653,0.3716,0.374,0.3767,0.3812,0.3841,0.3885,0.3904,0.3952,0.3979,0.4016,0.4048,0.4039,0.4111,0.4105,0.4127,0.4126,0.4141,0.414,0.4186,0.4157,0.4157,0.4157,0.4157,0,0.3544,0.3585,0.3635,0.3666,0.3713,0.3746,0.3792,0.3821,0.3861,0.3898,0.3921,0.3955,0.3995,0.4035,0.4061,0.4111,0.4123,0.4139,0.4145,0.4137,0.4135,0.4154,0.4152,0.4158,0.4158,0.4158,0.4158,0,0.3562,0.3597,0.3654,0.3709,0.3724,0.3756,0.3803,0.3834,0.3863,0.391,0.3923,0.3967,0.4015,0.4051,0.4113,0.4131,0.4184,0.419,0.4168,0.4171,0.4191,0.4189,0.4251,0.4261,0.4226,0.4226,0.4226,0,0.3585,0.3617,0.3676,0.3702,0.3729,0.3772,0.3802,0.3836,0.3866,0.392,0.3945,0.3994,0.4036,0.4112,0.415,0.4198,0.4205,0.4224,0.4213,0.4203,0.4206,0.4203,0.4206,0.4225,0.4226,0.4226,0.4226,0,0.3622,0.3638,0.368,0.3728,0.3763,0.3802,0.3842,0.3863,0.3904,0.3937,0.3986,0.4018,0.4081,0.413,0.4181,0.421,0.4225,0.4229,0.4237,0.4229,0.4214,0.4222,0.4172,0.4228,0.4228,0.4227,0.4227,0.4227,0.3644,0.3673,0.3719,0.3765,0.3798,0.3835,0.3867,0.3899,0.394,0.3994,0.4012,0.4063,0.4108,0.4179,0.4208,0.4248,0.4248,0.4259,0.4262,0.4264,0.4263,0.4208,0.4258,0.4258,0.4258,0.4258,0.4258,0,0.3682,0.3712,0.3754,0.3809,0.3845,0.3856,0.39,0.393,0.3974,0.4015,0.4055,0.4111,0.4159,0.42,0.4249,0.4274,0.4282,0.4286,0.4284,0.429,0.4261,0.4249,0.4278,0.4278,0.4278,0.4278,0.4278,0.4278,0.3706,0.3756,0.3777,0.3844,0.3875,0.3924,0.3949,0.3983,0.4015,0.4077,0.4117,0.4143,0.4185,0.4237,0.4281,0.4292,0.4309,0.4311,0.4324,0.4295,0.4292,0.429,0.4279,0.4314,0.4314,0.435,0.435,0.4351]},{"header":{"parameterUnit":"m.s-1","parameterCategory":1,"la1":30.2991,"la2":30.254,"lo1":-89.0895,"lo2":-89.0444,"dy":0.0017,"dx":0.0017,"nx":28,"ny":28,"refTime":"2024-07-31T03:00:00:Z","depth":0,"parameterNumber":3,"parameterNumberName":"V-component_of_WINDS"},"data":[0,0,0,0,0,0,0,0,0,0,0,0,0,0,0,0,0,0,0,0,0,0,0,0,0,0,0,0,0,0,0,0,0,0,0,0,0,0,0,0,0,0,0,0,0,0,0,0,0,0,0,0,0,0,0,0,0,0,4.1472,4.1471,0,4.1406,4.1405,4.1404,4.133,4.1329,4.1327,4.1326,4.1255,4.1254,4.1253,0,0,0,0,0,0,0,0,0,0,0,0,0,4.1532,4.1531,4.1472,4.1471,4.1471,4.1406,4.1405,4.1404,4.133,4.1328,4.1327,4.1326,4.1255,4.1254,4.1253,0,0,0,0,0,0,0,0,0,0,0,0,0,4.149,4.1531,4.1472,4.1426,4.1421,4.1406,4.1405,4.1404,4.133,4.1328,4.1327,4.1325,4.1256,4.1254,4.1253,4.1277,0,0,4.1249,4.1248,0,0,0,0,0,0,0,0,4.1492,4.1487,4.1433,4.1429,4.1424,4.1374,4.14,4.1361,4.133,4.1365,4.1326,4.1324,4.1296,4.1291,4.1282,4.1274,4.1271,4.1249,4.1248,4.1247,4.1247,0,0,0,0,0,0,0,4.1495,4.149,4.1446,4.1433,4.1427,4.1407,4.1399,4.1392,4.134,4.1361,4.1356,4.1349,4.1293,4.1284,4.128,4.127,4.1249,4.1248,4.1247,4.1246,4.1278,4.128,0,0,0,0,0,0,4.1505,4.1493,4.1448,4.1444,4.1455,4.1407,4.1399,4.1392,4.134,4.133,4.1351,4.1346,4.1287,4.1281,4.1277,4.1302,4.1247,4.1246,4.1245,4.1277,4.1278,4.128,0,0,0,0,0,0,4.1507,4.1502,4.1451,4.1467,4.1459,4.1408,4.1401,4.1391,4.1382,4.1332,4.1322,4.1351,4.1285,4.1279,4.1278,4.1299,4.1246,4.1244,4.1275,4.1277,4.1279,4.1353,0,0,0,0,0,0,4.1509,4.1503,4.1513,4.1468,4.1458,4.1454,4.1402,4.1391,4.138,4.1374,4.133,4.1321,4.1283,4.128,4.1277,4.1296,4.1243,4.1272,4.1276,4.1279,4.1348,4.1357,4.1365,0,0,0,0,0,4.1511,4.1535,4.1514,4.1509,4.1469,4.1455,4.145,4.1408,4.1382,4.1391,4.1359,4.1322,4.1297,4.1281,4.1276,4.1295,4.1271,4.1275,4.1278,4.1344,4.1356,4.1365,0,0,0,0,0,0,4.1583,4.1529,4.1504,4.1514,4.149,4.1443,4.1453,4.1421,4.1402,4.1397,4.1344,4.1334,4.134,4.1317,4.13,4.1316,4.1279,4.1282,4.1331,4.1341,4.1349,4.1354,4.1242,0,0,0,0,0,4.1601,4.1595,4.1547,4.1561,4.155,4.1504,4.1496,4.1465,4.1438,4.1427,4.1394,4.1368,4.1354,4.1346,4.133,4.1345,4.1333,4.1355,4.1364,4.1371,4.1374,4.1379,4.1388,4.1292,4.1292,4.1292,0,0,4.1636,4.1605,4.1605,4.1574,4.1552,4.1546,4.1495,4.1492,4.1487,4.1426,4.1424,4.1399,4.1366,4.1373,4.1374,4.1354,4.1398,4.1376,4.1382,4.1381,4.1384,4.1393,4.1401,4.1295,4.1294,4.1294,0,0,4.1697,4.1674,4.1682,4.1661,4.1629,4.1598,4.16,4.1557,4.1539,4.1536,4.149,4.1483,4.146,4.1439,4.1425,4.1478,4.1443,4.1474,4.1519,4.1524,4.1532,4.1538,4.1557,4.1564,4.1477,4.1478,4.1478,0,4.1744,4.1735,4.1691,4.169,4.1678,4.1624,4.1632,4.1613,4.1576,4.1569,4.1547,4.1518,4.1491,4.1492,4.1506,4.1496,4.1496,4.1479,4.1535,4.1541,4.1546,4.1563,4.157,4.1482,4.1481,4.1481,4.148,0,4.1795,4.1789,4.18,4.1768,4.1757,4.176,4.1715,4.1709,4.168,4.1651,4.1648,4.1615,4.1592,4.1589,4.156,4.1586,4.1575,4.1545,4.1506,4.156,4.1575,4.1581,4.1487,4.1486,4.1485,4.1484,0,0,4.19,4.1843,4.1848,4.1832,4.1792,4.1786,4.1787,4.1766,4.1761,4.1738,4.1736,4.1719,4.1691,4.1675,4.1642,4.1648,4.1692,4.1617,4.1615,4.1632,4.1718,4.1741,4.1749,4.1669,4.167,4.167,4.172,0,4.1954,4.1953,4.1913,4.1923,4.1917,4.1866,4.1866,4.1841,4.1814,4.1804,4.1773,4.1761,4.1726,4.1716,4.1719,4.1686,4.1708,4.1682,4.1666,4.1666,4.1676,4.1757,4.1781,4.183,4.1726,4.1727,4.1728,0,4.2017,4.1999,4.2009,4.1968,4.1964,4.1966,4.1942,4.1934,4.1904,4.1884,4.1867,4.183,4.1827,4.1791,4.1785,4.1768,4.1759,4.1742,4.1742,4.1739,4.17,4.1756,4.1845,4.1852,4.1737,4.1736,4.1735,0,4.2093,4.207,4.2073,4.2061,4.2014,4.2016,4.1997,4.1965,4.1955,4.1934,4.1927,4.1906,4.1894,4.1878,4.1836,4.1814,4.1835,4.1796,4.1817,4.1819,4.1824,4.1824,4.1913,4.1819,4.1819,4.1819,4.1818,0,4.2157,4.2165,4.2106,4.2108,4.2115,4.2069,4.2077,4.2052,4.2024,4.202,4.1973,4.197,4.1915,4.1905,4.1872,4.1872,4.1867,4.185,4.1841,4.1854,4.1856,4.1847,4.1843,4.182,4.182,4.182,4.1819,0,4.2243,4.2204,4.2204,4.2159,4.2148,4.2156,4.2117,4.2116,4.2087,4.2081,4.2077,4.203,4.2015,4.1972,4.1947,4.1924,4.1934,4.1917,4.1945,4.1939,4.1963,4.1962,4.2049,4.2058,4.1959,4.196,4.1961,0,4.2287,4.2292,4.2249,4.2243,4.2225,4.2216,4.2206,4.2159,4.215,4.2117,4.212,4.2102,4.2085,4.2064,4.2027,4.2007,4.1989,4.2021,4.1986,4.1999,4.199,4.199,4.199,4.2029,4.203,4.2031,4.2032,0,4.2369,4.2349,4.2336,4.2317,4.2306,4.2288,4.2267,4.2265,4.2213,4.2204,4.219,4.2177,4.2151,4.2134,4.2108,4.2086,4.205,4.2044,4.2048,4.2061,4.2077,4.2069,4.1966,4.2042,4.2041,4.204,4.204,4.2039,4.2435,4.2437,4.2407,4.2394,4.2374,4.2356,4.2353,4.2323,4.2311,4.2287,4.226,4.2248,4.2217,4.2179,4.216,4.2149,4.213,4.2136,4.2137,4.214,4.2146,4.2079,4.2144,4.2144,4.2144,4.2143,4.2143,0,4.2514,4.2493,4.2481,4.2454,4.2444,4.2413,4.2388,4.2381,4.2372,4.2347,4.2332,4.2315,4.2298,4.2259,4.2238,4.2237,4.222,4.2233,4.2233,4.2228,4.2164,4.2163,4.2247,4.2247,4.2247,4.2247,4.2247,4.2247,4.2555,4.2557,4.2534,4.2525,4.2503,4.2492,4.2481,4.2464,4.2443,4.2427,4.2413,4.2388,4.2357,4.2334,4.2316,4.2305,4.2299,4.2318,4.2301,4.2242,4.2233,4.2223,4.2222,4.2317,4.2317,4.2366,4.2367,4.2367]}]]